Location: Erdweis
(48.5167°N, 15.3500°E)
Time: 00:58:48
(UTC+00:00)

NOSS 2-2 (C) - Pass Details

Date: 22 January 2021
Orbit: 463 x 1745 km, 63.3° (Epoch: 03 March)

Event Time Altitude Azimuth Distance (km) Brightness Sun altitude
Rises 20:04:26 0° 318° (NW) 3,093 7.8 -42.8°
Reaches altitude 10° 20:06:29 10° 318° (NW) 2,311 7.0 -43.1°
Enters shadow 20:06:40 11° 318° (NW) 2,245 6.9 -43.2°
